Change the Weather History Date:

Wednesday, January 8, 2014

  Actual Average (KAQP) Record (KAQP)
Temperature  
Mean Temperature -6 °F -  
Max Temperature 5 °F 18 °F 53 °F (2003)
Min Temperature -16 °F 3 °F -20 °F (2014)
Degree Days  
Heating Degree Days 70    
Moisture  
Dew Point -12 °F    
Average Humidity 75    
Maximum Humidity 85    
Minimum Humidity 66    
Precipitation  
Precipitation 0.00 in - - ()
Sea Level Pressure  
Sea Level Pressure 30.35 in    
Wind  
Wind Speed 2 mph (SE)    
Max Wind Speed 17 mph    
Max Gust Speed 21 mph    
Visibility 10 miles    
Events Snow    
Averages and records for this station are not official NWS values.
T = Trace of Precipitation, MM = Missing Value Source: NWS Daily Summary

Daily Weather History Graph

Daily Weather History Graph

Search for Another Location

Airport or City:

Trip Planner

Search our weather history database for the weather conditions in past years. The results will help you decide how hot, cold, wet, or windy it might be!

Date:

Astronomy

Jan. 08, 2014 Rise Set
Actual Time 8:04 AM CST 5:01 PM CST
Civil Twilight 7:30 AM CST 5:34 PM CST
Nautical Twilight 6:53 AM CST 6:11 PM CST
Astronomical Twilight 6:18 AM CST 6:47 PM CST
Moon 12:03 PM CST (1/8) 1:00 AM CST (1/8)
Length of Visible Light 10h 03m
Length of Day
8h 56m
First Quarter, 56% of the Moon is Illuminated
Jan 8
First Quarter
Jan 15
Full
Jan 23
Last Quarter
Jan 30
New
Feb 6
First Quarter

Hourly Weather History & Observations

Time (CST) Temp. Windchill Dew Point Humidity Pressure Visibility Wind Dir Wind Speed Gust Speed Precip Events Conditions
12:13 AM -9.4 °F - -14.8 °F 77% 30.27 in 10.0 mi Calm Calm - N/A   Clear
12:34 AM -9.4 °F - -14.8 °F 77% 30.27 in 10.0 mi Calm Calm - N/A   Clear
12:54 AM -9.4 °F - -14.8 °F 77% 30.28 in 10.0 mi Calm Calm - N/A   Clear
1:13 AM -9.4 °F - -14.8 °F 77% 30.28 in 10.0 mi Calm Calm - N/A   Clear
1:34 AM -11.2 °F - -16.6 °F 77% 30.29 in 10.0 mi Calm Calm - N/A   Clear
1:54 AM -11.2 °F - -16.6 °F 77% 30.29 in 10.0 mi Calm Calm - N/A   Clear
2:14 AM -11.2 °F - -16.6 °F 77% 30.30 in 10.0 mi Calm Calm - N/A   Clear
2:32 AM -11.2 °F - -16.6 °F 77% 30.30 in 10.0 mi Calm Calm - N/A   Clear
2:53 AM -14.8 °F - -18.4 °F 84% 30.31 in 10.0 mi Calm Calm - N/A   Clear
3:14 AM -14.8 °F - -20.2 °F 77% 30.31 in 10.0 mi Calm Calm - N/A   Clear
3:34 AM -13.0 °F - -18.4 °F 77% 30.32 in 10.0 mi Calm Calm - N/A   Clear
3:53 AM -13.0 °F - -18.4 °F 77% 30.32 in 10.0 mi Calm Calm - N/A   Clear
4:14 AM -13.0 °F - -18.4 °F 77% 30.32 in 10.0 mi Calm Calm - N/A   Clear
4:34 AM -14.8 °F - -20.2 °F 77% 30.33 in 10.0 mi Calm Calm - N/A   Clear
4:54 AM -13.0 °F - -18.4 °F 77% 30.33 in 7.0 mi Calm Calm - N/A Snow Light Snow
5:14 AM -14.8 °F - -20.2 °F 77% 30.33 in 10.0 mi Calm Calm - N/A Snow Light Snow
5:34 AM -16.6 °F - -22.0 °F 76% 30.33 in 10.0 mi Calm Calm - N/A   Clear
5:53 AM -16.6 °F - -20.2 °F 84% 30.33 in 10.0 mi Calm Calm - N/A   Clear
6:14 AM -14.8 °F - -18.4 °F 84% 30.33 in 10.0 mi Calm Calm - N/A   Clear
6:34 AM -13.0 °F - -20.2 °F 70% 30.34 in 10.0 mi Calm Calm - N/A   Clear
6:53 AM -14.8 °F - -20.2 °F 77% 30.35 in 10.0 mi Calm Calm - N/A   Clear
7:14 AM -13.0 °F - -18.4 °F 77% 30.35 in 10.0 mi Calm Calm - N/A   Clear
7:34 AM -14.8 °F - -20.2 °F 77% 30.36 in 10.0 mi Calm Calm - N/A   Clear
7:54 AM -14.8 °F - -20.2 °F 77% 30.37 in 10.0 mi Calm Calm - N/A   Clear
8:13 AM -13.0 °F - -18.4 °F 77% 30.38 in 10.0 mi Calm Calm - N/A   Clear
8:34 AM -13.0 °F - -18.4 °F 77% 30.39 in 10.0 mi Calm Calm - N/A   Clear
8:54 AM -14.8 °F - -20.2 °F 77% 30.40 in 7.0 mi Calm Calm - N/A   Clear
9:13 AM -11.2 °F - -16.6 °F 77% 30.41 in 7.0 mi Calm Calm - N/A Snow Light Snow
9:34 AM -9.4 °F - -14.8 °F 77% 30.42 in 10.0 mi Calm Calm - N/A   Clear
9:54 AM -9.4 °F - -14.8 °F 77% 30.43 in 4.0 mi Calm Calm - N/A Snow Light Snow
10:13 AM -7.6 °F - -14.8 °F 71% 30.43 in 10.0 mi Calm Calm - N/A   Clear
10:34 AM -7.6 °F - -13.0 °F 77% 30.43 in 10.0 mi Calm Calm - N/A   Clear
10:54 AM -7.6 °F -16.5 °F -13.0 °F 77% 30.43 in 10.0 mi North 3.5 mph - N/A   Clear
11:13 AM -7.6 °F - -13.0 °F 77% 30.43 in 10.0 mi Calm Calm - N/A   Clear
11:34 AM -5.8 °F - -11.2 °F 77% 30.43 in 10.0 mi Calm Calm - N/A   Clear
11:53 AM -2.2 °F - -11.2 °F 66% 30.42 in 10.0 mi Calm Calm - N/A   Clear
12:14 PM -2.2 °F -10.4 °F -11.2 °F 66% 30.41 in 10.0 mi WNW 3.5 mph - N/A   Clear
12:34 PM -2.2 °F - -11.2 °F 66% 30.40 in 10.0 mi Calm Calm - N/A   Clear
12:54 PM -0.4 °F - -9.4 °F 66% 30.39 in 10.0 mi Calm Calm - N/A   Clear
1:14 PM -0.4 °F - -9.4 °F 66% 30.39 in 10.0 mi Calm Calm - N/A   Clear
1:33 PM -0.4 °F - -9.4 °F 66% 30.40 in 10.0 mi Calm Calm - N/A   Clear
1:54 PM -0.4 °F - -9.4 °F 66% 30.40 in 10.0 mi Calm Calm - N/A   Clear
2:14 PM -0.4 °F - -9.4 °F 66% 30.39 in 10.0 mi Calm Calm - N/A   Clear
2:33 PM -0.4 °F -8.3 °F -9.4 °F 66% 30.39 in 10.0 mi ESE 3.5 mph - N/A   Clear
2:54 PM -0.4 °F -10.4 °F -7.6 °F 72% 30.39 in 10.0 mi SE 4.6 mph - N/A   Clear
3:14 PM -0.4 °F -10.4 °F -9.4 °F 66% 30.39 in 10.0 mi ESE 4.6 mph - N/A   Clear
3:33 PM -0.4 °F -10.4 °F -9.4 °F 66% 30.39 in 10.0 mi ESE 4.6 mph - N/A   Clear
3:54 PM -0.4 °F -14.7 °F -9.4 °F 66% 30.38 in 10.0 mi SE 8.1 mph - N/A   Clear
4:13 PM -0.4 °F -13.4 °F -9.4 °F 66% 30.38 in 10.0 mi SE 6.9 mph - N/A   Clear
4:33 PM -2.2 °F -14.2 °F -9.4 °F 71% 30.38 in 10.0 mi SSE 5.8 mph - N/A   Clear
4:54 PM -4.0 °F -19.0 °F -11.2 °F 71% 30.37 in 10.0 mi SE 8.1 mph - N/A   Clear
5:13 PM -5.8 °F -16.7 °F -11.2 °F 77% 30.37 in 10.0 mi SE 4.6 mph - N/A   Clear
5:34 PM -5.8 °F -18.4 °F -11.2 °F 77% 30.37 in 10.0 mi SE 5.8 mph - N/A   Scattered Clouds
5:54 PM -4.0 °F -16.3 °F -9.4 °F 78% 30.36 in 10.0 mi SE 5.8 mph - N/A   Mostly Cloudy
6:13 PM -2.2 °F -16.8 °F -9.4 °F 71% 30.36 in 10.0 mi SE 8.1 mph - N/A   Overcast
6:34 PM -2.2 °F -18.0 °F -9.4 °F 71% 30.36 in 10.0 mi SE 9.2 mph - N/A   Overcast
6:54 PM -2.2 °F -18.9 °F -9.4 °F 71% 30.35 in 10.0 mi SE 10.4 mph - N/A   Overcast
7:13 PM -2.2 °F -19.9 °F -7.6 °F 78% 30.35 in 10.0 mi SE 11.5 mph 16.1 mph N/A   Overcast
7:34 PM -2.2 °F -22.2 °F -7.6 °F 78% 30.34 in 10.0 mi SE 15.0 mph - N/A   Overcast
7:54 PM -0.4 °F -19.2 °F -7.6 °F 72% 30.33 in 10.0 mi SE 13.8 mph - N/A   Overcast
8:13 PM -0.4 °F -15.7 °F -5.8 °F 78% 30.33 in 10.0 mi SSE 9.2 mph - N/A   Overcast
8:34 PM -0.4 °F -16.7 °F -5.8 °F 78% 30.33 in 10.0 mi SSE 10.4 mph 16.1 mph N/A   Overcast
8:54 PM 1.4 °F -15.3 °F -5.8 °F 72% 30.32 in 10.0 mi SE 11.5 mph - N/A   Overcast
9:13 PM 1.4 °F -16.9 °F -4.0 °F 78% 30.31 in 10.0 mi SE 13.8 mph 17.3 mph N/A   Overcast
9:34 PM 1.4 °F -16.1 °F -4.0 °F 78% 30.31 in 10.0 mi SE 12.7 mph 16.1 mph N/A   Overcast
9:54 PM 1.4 °F -15.3 °F -2.2 °F 85% 30.30 in 10.0 mi SSE 11.5 mph 17.3 mph N/A   Overcast
10:14 PM 3.2 °F -15.3 °F -2.2 °F 78% 30.29 in 10.0 mi SSE 15.0 mph 19.6 mph N/A   Overcast
10:34 PM 3.2 °F -15.9 °F -2.2 °F 78% 30.28 in 10.0 mi SE 16.1 mph 19.6 mph N/A   Overcast
10:54 PM 3.2 °F -16.5 °F -2.2 °F 78% 30.27 in 10.0 mi SE 17.3 mph - N/A   Overcast
11:14 PM 3.2 °F -14.6 °F -2.2 °F 78% 30.26 in 10.0 mi SSE 13.8 mph - N/A   Overcast
11:34 PM 5.0 °F -13.0 °F -0.4 °F 78% 30.25 in 10.0 mi SE 15.0 mph 20.7 mph N/A   Overcast
11:53 PM 5.0 °F -12.3 °F -0.4 °F 78% 30.24 in 10.0 mi SSE 13.8 mph 19.6 mph N/A   Overcast